This is the latest recevied weather packets stored in our database for station/object N5DGC. If no packets are shown the sender has not sent any weather packets the latest 10 day(s).
| Time | Temp. | Humidity | Pressure | Rain* | Wind** | Luminosity | Snow |
|---|---|---|---|---|---|---|---|
| 1787906085 | 20° C | 50% | 1243.9 hPa | 0 mm | - | 0 W/m² | - |
| 1787905773 | 20° C | 51% | 1243.9 hPa | 0 mm | - | 0 W/m² | - |
| 1787905470 | 20° C | 51% | 1243.9 hPa | 0 mm | - | 0 W/m² | - |
| 1787905165 | 20.56° C | 55% | 1243.8 hPa | 0 mm | - | 0 W/m² | - |
| 1787904860 | 20.56° C | 54% | 1243.8 hPa | 0 mm | - | 0 W/m² | - |
| 1787904557 | 21.11° C | 51% | 1243.8 hPa | 0 mm | - | 0 W/m² | - |
| 1787904256 | 21.11° C | 48% | 1243.8 hPa | 0 mm | - | 0 W/m² | - |
| 1787903956 | 21.67° C | 49% | 1243.8 hPa | 0 mm | - | 0 W/m² | - |
| 1787903653 | 21.67° C | 48% | 1243.9 hPa | 0 mm | - | 0 W/m² | - |
| 1787903348 | 21.67° C | 46% | 1243.9 hPa | 0 mm | - | 0 W/m² | - |
| 1787903044 | 22.22° C | 46% | 1243.9 hPa | 0 mm | - | 0 W/m² | - |
| 1787902740 | 22.22° C | 44% | 1243.9 hPa | 0 mm | - | 0 W/m² | - |
| 1787902435 | 22.78° C | 44% | 1243.9 hPa | 0 mm | - | 0 W/m² | - |
| 1787902131 | 22.78° C | 43% | 1244.1 hPa | 0 mm | - | 0 W/m² | - |
| 1787901826 | 22.78° C | 43% | 1244.1 hPa | 0 mm | - | 0 W/m² | - |
| 1787901521 | 23.33° C | 42% | 1243.9 hPa | 0 mm | - | 0 W/m² | - |
| 1787901218 | 23.33° C | 42% | 1244.2 hPa | 0 mm | - | 0 W/m² | - |
| 1787900918 | 23.89° C | 41% | 1243.9 hPa | 0 mm | - | 0 W/m² | - |
| 1787900613 | 23.89° C | 41% | 1244.1 hPa | 0 mm | - | 0 W/m² | - |
| 1787900312 | 23.89° C | 41% | 1243.9 hPa | 0 mm | - | 0 W/m² | - |
| 1787900007 | 23.89° C | 41% | 1244.1 hPa | 0 mm | - | 0 W/m² | - |
| 1787899703 | 23.89° C | 41% | 1244.2 hPa | 0 mm | - | 0 W/m² | - |
| 1787899399 | 23.89° C | 40% | 1243.9 hPa | 0 mm | - | 0 W/m² | - |
| 1787899093 | 23.89° C | 39% | 1244.2 hPa | 0 mm | - | 0 W/m² | - |
| 1787898789 | 24.44° C | 39% | 1243.9 hPa | 0 mm | - | 0 W/m² | - |
* Rain latest hour (hover to see other rain measurements)
** Current wind speed in m/s (hover to see current wind gust speed)